PLA_CODE;SMP_DB_REAL;SMP_DE_REAL;SMP_D_ANALYSIS;POL_CODE;MEA_CODE;MEA_PHYSICAL_UNIT;MEA_VALUE;MEA_F_STATUS;JOB_TYPE;
"PBW01p";"2024/01/01 00:01";"2024/01/01 23:59";"2024/01/29";"PM2.5";"PM2.5";"ug/m3";"3";"O";"DATA_VALIDATE_ENV";
"PBW01p";"2024/01/02 00:01";"2024/01/02 23:59";"2024/01/29";"PM2.5";"PM2.5";"ug/m3";"3";"O";"DATA_VALIDATE_ENV";
"PBW01p";"2024/01/03 00:01";"2024/01/03 23:59";"2024/01/29";"PM2.5";"PM2.5";"ug/m3";"3";"O";"DATA_VALIDATE_ENV";
"PBW01p";"2024/01/04 00:01";"2024/01/04 23:59";"2024/01/29";"PM2.5";"PM2.5";"ug/m3";"3";"O";"DATA_VALIDATE_ENV";
"PBW01p";"2024/01/05 00:01";"2024/01/05 23:59";"2024/01/29";"PM2.5";"PM2.5";"ug/m3";"3";"O";"DATA_VALIDATE_ENV";
"PBW01p";"2024/01/06 00:01";"2024/01/06 23:59";"2024/01/29";"PM2.5";"PM2.5";"ug/m3";"3";"O";"DATA_VALIDATE_ENV";
"PBW01p";"2024/01/07 00:01";"2024/01/07 23:59";"2024/01/29";"PM2.5";"PM2.5";"ug/m3";"3.2";"A";"DATA_VALIDATE_ENV";
"PBW01p";"2024/01/08 00:01";"2024/01/08 23:59";"2024/01/29";"PM2.5";"PM2.5";"ug/m3";"3.1";"A";"DATA_VALIDATE_ENV";
"PBW01p";"2024/01/09 00:01";"2024/01/09 23:59";"2024/02/20";"PM2.5";"PM2.5";"ug/m3";"6.3";"A";"DATA_VALIDATE_TECH";
"PBW01p";"2024/01/10 00:01";"2024/01/10 23:59";"2024/02/20";"PM2.5";"PM2.5";"ug/m3";"13.9";"A";"DATA_VALIDATE_TECH";
"PBW01p";"2024/01/11 00:01";"2024/01/11 23:59";"2024/02/20";"PM2.5";"PM2.5";"ug/m3";"16.1";"A";"DATA_VALIDATE_TECH";
"PBW01p";"2024/01/12 00:01";"2024/01/12 23:59";"2024/02/20";"PM2.5";"PM2.5";"ug/m3";"7.6";"A";"DATA_VALIDATE_TECH";
"PBW01p";"2024/01/13 00:01";"2024/01/13 23:59";"2024/02/20";"PM2.5";"PM2.5";"ug/m3";"6.4";"A";"DATA_VALIDATE_TECH";
"PBW01p";"2024/01/14 00:01";"2024/01/14 23:59";"2024/02/20";"PM2.5";"PM2.5";"ug/m3";"8.5";"A";"DATA_VALIDATE_TECH";
"PBW01p";"2024/01/15 00:01";"2024/01/15 23:59";"2024/02/20";"PM2.5";"PM2.5";"ug/m3";"6.9";"A";"DATA_VALIDATE_TECH";
"PBW01p";"2024/01/16 00:01";"2024/01/16 23:59";"2024/02/20";"PM2.5";"PM2.5";"ug/m3";"5.8";"A";"DATA_VALIDATE_TECH";
"PBW01p";"2024/01/17 00:01";"2024/01/17 23:59";"2024/02/20";"PM2.5";"PM2.5";"ug/m3";"6.4";"A";"DATA_VALIDATE_TECH";
"PBW01p";"2024/01/18 00:01";"2024/01/18 23:59";"2024/02/20";"PM2.5";"PM2.5";"ug/m3";"6.5";"A";"DATA_VALIDATE_TECH";
"PBW01p";"2024/01/19 00:01";"2024/01/19 23:59";"2024/02/20";"PM2.5";"PM2.5";"ug/m3";"12";"A";"DATA_VALIDATE_TECH";
"PBW01p";"2024/01/20 00:01";"2024/01/20 23:59";"2024/02/20";"PM2.5";"PM2.5";"ug/m3";"7.3";"A";"DATA_VALIDATE_TECH";
"PBW01p";"2024/01/21 00:01";"2024/01/21 23:59";"2024/02/20";"PM2.5";"PM2.5";"ug/m3";"10.3";"A";"DATA_VALIDATE_TECH";
"PBW01p";"2024/01/22 00:01";"2024/01/22 23:59";"2024/02/20";"PM2.5";"PM2.5";"ug/m3";"3";"O";"DATA_VALIDATE_TECH";
"PBW01p";"2024/01/23 00:01";"2024/01/23 23:59";"2024/02/27";"PM2.5";"PM2.5";"ug/m3";"3.6";"A";"DATA_VALIDATE_TECH";
"PBW01p";"2024/01/24 00:01";"2024/01/24 23:59";"2024/02/27";"PM2.5";"PM2.5";"ug/m3";"4";"A";"DATA_VALIDATE_TECH";
"PBW01p";"2024/01/25 00:01";"2024/01/25 23:59";"2024/02/27";"PM2.5";"PM2.5";"ug/m3";"3";"O";"DATA_VALIDATE_TECH";
"PBW01p";"2024/01/26 00:01";"2024/01/26 23:59";"2024/02/27";"PM2.5";"PM2.5";"ug/m3";"3";"O";"DATA_VALIDATE_TECH";
"PBW01p";"2024/01/27 00:01";"2024/01/27 23:59";"2024/02/27";"PM2.5";"PM2.5";"ug/m3";"3.1";"A";"DATA_VALIDATE_TECH";
"PBW01p";"2024/01/28 00:01";"2024/01/28 23:59";"2024/02/27";"PM2.5";"PM2.5";"ug/m3";"5.2";"A";"DATA_VALIDATE_TECH";
"PBW01p";"2024/01/29 00:01";"2024/01/29 23:59";"2024/02/27";"PM2.5";"PM2.5";"ug/m3";"9.3";"A";"DATA_VALIDATE_TECH";
"PBW01p";"2024/01/30 00:01";"2024/01/30 23:59";"2024/02/27";"PM2.5";"PM2.5";"ug/m3";"6.4";"A";"DATA_VALIDATE_TECH";
"PBW01p";"2024/01/31 00:01";"2024/01/31 23:59";"2024/02/27";"PM2.5";"PM2.5";"ug/m3";"3";"O";"DATA_VALIDATE_TECH";
"PBW01p";"2024/02/01 00:01";"2024/02/01 23:59";"2024/02/27";"PM2.5";"PM2.5";"ug/m3";"3.1";"A";"DATA_VALIDATE_TECH";
"PBW01p";"2024/02/02 00:01";"2024/02/02 23:59";"2024/02/27";"PM2.5";"PM2.5";"ug/m3";"4.2";"A";"DATA_VALIDATE_TECH";
"PBW01p";"2024/02/03 00:01";"2024/02/03 23:59";"2024/02/27";"PM2.5";"PM2.5";"ug/m3";"3";"O";"DATA_VALIDATE_TECH";
"PBW01p";"2024/02/04 00:01";"2024/02/04 23:59";"2024/02/27";"PM2.5";"PM2.5";"ug/m3";"3";"O";"DATA_VALIDATE_TECH";
"PBW01p";"2024/02/05 00:01";"2024/02/05 23:59";"2024/02/27";"PM2.5";"PM2.5";"ug/m3";"7.4";"A";"DATA_VALIDATE_TECH";
"PBW01p";"2024/02/06 00:01";"2024/02/06 23:59";"2024/03/13";"PM2.5";"PM2.5";"ug/m3";"6.9";"A";"DATA_VALIDATE_TECH";
"PBW01p";"2024/02/07 00:01";"2024/02/07 23:59";"2024/03/13";"PM2.5";"PM2.5";"ug/m3";"3";"O";"DATA_VALIDATE_TECH";
"PBW01p";"2024/02/08 00:01";"2024/02/08 23:59";"2024/03/13";"PM2.5";"PM2.5";"ug/m3";"4.9";"A";"DATA_VALIDATE_TECH";
"PBW01p";"2024/02/09 00:01";"2024/02/09 23:59";"2024/03/13";"PM2.5";"PM2.5";"ug/m3";"4.1";"A";"DATA_VALIDATE_TECH";
"PBW01p";"2024/02/10 00:01";"2024/02/10 23:59";"2024/03/13";"PM2.5";"PM2.5";"ug/m3";"3";"O";"DATA_VALIDATE_TECH";
"PBW01p";"2024/02/11 00:01";"2024/02/11 23:59";"2024/03/13";"PM2.5";"PM2.5";"ug/m3";"3";"O";"DATA_VALIDATE_TECH";
"PBW01p";"2024/02/12 00:01";"2024/02/12 23:59";"2024/03/13";"PM2.5";"PM2.5";"ug/m3";"3";"O";"DATA_VALIDATE_TECH";
"PBW01p";"2024/02/13 00:01";"2024/02/13 23:59";"2024/03/13";"PM2.5";"PM2.5";"ug/m3";"3";"O";"DATA_VALIDATE_TECH";
"PBW01p";"2024/02/14 00:01";"2024/02/14 23:59";"2024/03/13";"PM2.5";"PM2.5";"ug/m3";"3";"O";"DATA_VALIDATE_TECH";
"PBW01p";"2024/02/15 00:01";"2024/02/15 23:59";"2024/03/13";"PM2.5";"PM2.5";"ug/m3";"3";"O";"DATA_VALIDATE_TECH";
"PBW01p";"2024/02/16 00:01";"2024/02/16 23:59";"2024/03/13";"PM2.5";"PM2.5";"ug/m3";"3";"O";"DATA_VALIDATE_TECH";
"PBW01p";"2024/02/17 00:01";"2024/02/17 23:59";"2024/03/13";"PM2.5";"PM2.5";"ug/m3";"3.5";"A";"DATA_VALIDATE_TECH";
"PBW01p";"2024/02/18 00:01";"2024/02/18 23:59";"2024/03/13";"PM2.5";"PM2.5";"ug/m3";"5.7";"A";"DATA_VALIDATE_TECH";
"PBW01p";"2024/02/19 00:01";"2024/02/19 23:59";"2024/03/13";"PM2.5";"PM2.5";"ug/m3";"3";"O";"DATA_VALIDATE_TECH";
"PBW01p";"2024/02/20 00:01";"2024/02/20 23:59";"2024/03/26";"PM2.5";"PM2.5";"ug/m3";"4.5";"A";"DATA_VALIDATE_TECH";
"PBW01p";"2024/02/21 00:01";"2024/02/21 23:59";"2024/03/26";"PM2.5";"PM2.5";"ug/m3";"4.5";"A";"DATA_VALIDATE_TECH";
"PBW01p";"2024/02/22 00:01";"2024/02/22 23:59";"2024/03/26";"PM2.5";"PM2.5";"ug/m3";"3";"O";"DATA_VALIDATE_TECH";
"PBW01p";"2024/02/23 00:01";"2024/02/23 23:59";"2024/03/26";"PM2.5";"PM2.5";"ug/m3";"3";"O";"DATA_VALIDATE_TECH";
"PBW01p";"2024/02/24 00:01";"2024/02/24 23:59";"2024/03/26";"PM2.5";"PM2.5";"ug/m3";"3";"O";"DATA_VALIDATE_TECH";
"PBW01p";"2024/02/25 00:01";"2024/02/25 23:59";"2024/03/26";"PM2.5";"PM2.5";"ug/m3";"3";"O";"DATA_VALIDATE_TECH";
"PBW01p";"2024/02/26 00:01";"2024/02/26 23:59";"2024/03/26";"PM2.5";"PM2.5";"ug/m3";"3";"O";"DATA_VALIDATE_TECH";
"PBW01p";"2024/02/27 00:01";"2024/02/27 23:59";"2024/03/26";"PM2.5";"PM2.5";"ug/m3";"11";"A";"DATA_VALIDATE_TECH";
"PBW01p";"2024/02/28 00:01";"2024/02/28 23:59";"2024/03/26";"PM2.5";"PM2.5";"ug/m3";"13.1";"A";"DATA_VALIDATE_TECH";
"PBW01p";"2024/02/29 00:01";"2024/02/29 23:59";"2024/03/26";"PM2.5";"PM2.5";"ug/m3";"6.7";"A";"DATA_VALIDATE_TECH";
"PBW01p";"2024/03/01 00:01";"2024/03/01 23:59";"2024/03/26";"PM2.5";"PM2.5";"ug/m3";"3";"O";"DATA_VALIDATE_TECH";
"PBW01p";"2024/03/02 00:01";"2024/03/02 23:59";"2024/03/26";"PM2.5";"PM2.5";"ug/m3";"3";"O";"DATA_VALIDATE_TECH";
"PBW01p";"2024/03/03 00:01";"2024/03/03 23:59";"2024/03/26";"PM2.5";"PM2.5";"ug/m3";"7.1";"A";"DATA_VALIDATE_TECH";
"PBW01p";"2024/03/04 00:01";"2024/03/04 23:59";"2024/03/26";"PM2.5";"PM2.5";"ug/m3";"7.3";"A";"DATA_VALIDATE_TECH";
"PBW01p";"2024/03/05 00:01";"2024/03/05 23:59";"2024/04/09";"PM2.5";"PM2.5";"ug/m3";"6.2";"A";"DATA_VALIDATE_TECH";
"PBW01p";"2024/03/06 00:01";"2024/03/06 23:59";"2024/04/09";"PM2.5";"PM2.5";"ug/m3";"3.4";"A";"DATA_VALIDATE_TECH";
"PBW01p";"2024/03/07 00:01";"2024/03/07 23:59";"2024/04/09";"PM2.5";"PM2.5";"ug/m3";"16.1";"A";"DATA_VALIDATE_TECH";
"PBW01p";"2024/03/08 00:01";"2024/03/08 23:59";"2024/04/09";"PM2.5";"PM2.5";"ug/m3";"13.5";"A";"DATA_VALIDATE_TECH";
"PBW01p";"2024/03/09 00:01";"2024/03/09 23:59";"2024/04/09";"PM2.5";"PM2.5";"ug/m3";"9.4";"A";"DATA_VALIDATE_TECH";
"PBW01p";"2024/03/10 00:01";"2024/03/10 23:59";"2024/04/09";"PM2.5";"PM2.5";"ug/m3";"6";"A";"DATA_VALIDATE_TECH";
"PBW01p";"2024/03/11 00:01";"2024/03/11 23:59";"2024/04/09";"PM2.5";"PM2.5";"ug/m3";"3.9";"A";"DATA_VALIDATE_TECH";
"PBW01p";"2024/03/12 00:01";"2024/03/12 23:59";"2024/04/09";"PM2.5";"PM2.5";"ug/m3";"8.7";"A";"DATA_VALIDATE_TECH";
"PBW01p";"2024/03/13 00:01";"2024/03/13 23:59";"2024/04/09";"PM2.5";"PM2.5";"ug/m3";"3";"O";"DATA_VALIDATE_TECH";
"PBW01p";"2024/03/14 00:01";"2024/03/14 23:59";"2024/04/09";"PM2.5";"PM2.5";"ug/m3";"3";"A";"DATA_VALIDATE_TECH";
"PBW01p";"2024/03/15 00:01";"2024/03/15 23:59";"2024/04/09";"PM2.5";"PM2.5";"ug/m3";"3";"O";"DATA_VALIDATE_TECH";
"PBW01p";"2024/03/16 00:01";"2024/03/16 23:59";"2024/04/09";"PM2.5";"PM2.5";"ug/m3";"3";"O";"DATA_VALIDATE_TECH";
"PBW01p";"2024/03/17 00:01";"2024/03/17 23:59";"2024/04/09";"PM2.5";"PM2.5";"ug/m3";"3";"A";"DATA_VALIDATE_TECH";
"PBW01p";"2024/03/18 00:01";"2024/03/18 23:59";"2024/04/09";"PM2.5";"PM2.5";"ug/m3";"3";"O";"DATA_VALIDATE_TECH";
"PBW01p";"2024/03/19 00:01";"2024/03/19 23:59";"2024/04/18";"PM2.5";"PM2.5";"ug/m3";"3.2";"A";"DATA_VALIDATE_TECH";
"PBW01p";"2024/03/20 00:01";"2024/03/20 23:59";"2024/04/18";"PM2.5";"PM2.5";"ug/m3";"4.6";"A";"DATA_VALIDATE_TECH";
"PBW01p";"2024/03/21 00:01";"2024/03/21 23:59";"2024/04/18";"PM2.5";"PM2.5";"ug/m3";"7";"A";"DATA_VALIDATE_TECH";
"PBW01p";"2024/03/22 00:01";"2024/03/22 23:59";"2024/04/18";"PM2.5";"PM2.5";"ug/m3";"5.8";"A";"DATA_VALIDATE_TECH";
"PBW01p";"2024/03/23 00:01";"2024/03/23 23:59";"2024/04/18";"PM2.5";"PM2.5";"ug/m3";"3";"O";"DATA_VALIDATE_TECH";
"PBW01p";"2024/03/24 00:01";"2024/03/24 23:59";"2024/04/18";"PM2.5";"PM2.5";"ug/m3";"3";"O";"DATA_VALIDATE_TECH";
"PBW01p";"2024/03/25 00:01";"2024/03/25 23:59";"2024/04/18";"PM2.5";"PM2.5";"ug/m3";"3";"O";"DATA_VALIDATE_TECH";
"PBW01p";"2024/03/26 00:01";"2024/03/26 23:59";"2024/04/18";"PM2.5";"PM2.5";"ug/m3";"4";"A";"DATA_VALIDATE_TECH";
"PBW01p";"2024/03/27 00:01";"2024/03/27 23:59";"2024/04/18";"PM2.5";"PM2.5";"ug/m3";"3";"O";"DATA_VALIDATE_TECH";
"PBW01p";"2024/03/28 00:01";"2024/03/28 23:59";"2024/04/18";"PM2.5";"PM2.5";"ug/m3";"3";"O";"DATA_VALIDATE_TECH";
"PBW01p";"2024/03/29 00:01";"2024/03/29 23:59";"2024/04/18";"PM2.5";"PM2.5";"ug/m3";"3";"O";"DATA_VALIDATE_TECH";
"PBW01p";"2024/03/30 00:01";"2024/03/30 23:59";"2024/04/18";"PM2.5";"PM2.5";"ug/m3";"3.2";"A";"DATA_VALIDATE_TECH";
"PBW01p";"2024/03/31 00:01";"2024/03/31 23:59";"2024/04/18";"PM2.5";"PM2.5";"ug/m3";"3";"O";"DATA_VALIDATE_TECH";
"PBW01p";"2024/04/01 00:01";"2024/04/01 23:59";"2024/04/18";"PM2.5";"PM2.5";"ug/m3";"3";"O";"DATA_VALIDATE_TECH";
"PBW01p";"2024/04/02 00:01";"2024/04/02 23:59";"2024/05/06";"PM2.5";"PM2.5";"ug/m3";"3";"O";"DATA_VALIDATE_TECH";
"PBW01p";"2024/04/03 00:01";"2024/04/03 23:59";"2024/05/06";"PM2.5";"PM2.5";"ug/m3";"3";"O";"DATA_VALIDATE_TECH";
"PBW01p";"2024/04/04 00:01";"2024/04/04 23:59";"2024/05/06";"PM2.5";"PM2.5";"ug/m3";"3";"O";"DATA_VALIDATE_TECH";
"PBW01p";"2024/04/05 00:01";"2024/04/05 23:59";"2024/05/06";"PM2.5";"PM2.5";"ug/m3";"3";"O";"DATA_VALIDATE_TECH";
"PBW01p";"2024/04/06 00:01";"2024/04/06 23:59";"2024/05/06";"PM2.5";"PM2.5";"ug/m3";"3";"O";"DATA_VALIDATE_TECH";
"PBW01p";"2024/04/07 00:01";"2024/04/07 23:59";"2024/05/06";"PM2.5";"PM2.5";"ug/m3";"3.6";"A";"DATA_VALIDATE_TECH";
"PBW01p";"2024/04/08 00:01";"2024/04/08 23:59";"2024/05/06";"PM2.5";"PM2.5";"ug/m3";"6.8";"A";"DATA_VALIDATE_TECH";
"PBW01p";"2024/04/09 00:01";"2024/04/09 23:59";"2024/05/06";"PM2.5";"PM2.5";"ug/m3";"3";"O";"DATA_VALIDATE_TECH";
"PBW01p";"2024/04/10 00:01";"2024/04/10 23:59";"2024/05/06";"PM2.5";"PM2.5";"ug/m3";"3";"O";"DATA_VALIDATE_TECH";
"PBW01p";"2024/04/11 00:01";"2024/04/11 23:59";"2024/05/06";"PM2.5";"PM2.5";"ug/m3";"3";"O";"DATA_VALIDATE_TECH";
"PBW01p";"2024/04/12 00:01";"2024/04/12 23:59";"2024/05/06";"PM2.5";"PM2.5";"ug/m3";"3";"O";"DATA_VALIDATE_TECH";
"PBW01p";"2024/04/13 00:01";"2024/04/13 23:59";"2024/05/06";"PM2.5";"PM2.5";"ug/m3";"3";"O";"DATA_VALIDATE_TECH";
"PBW01p";"2024/04/14 00:01";"2024/04/14 23:59";"2024/05/06";"PM2.5";"PM2.5";"ug/m3";"3";"O";"DATA_VALIDATE_TECH";
"PBW01p";"2024/04/15 00:01";"2024/04/15 23:59";"2024/05/06";"PM2.5";"PM2.5";"ug/m3";"3";"O";"DATA_VALIDATE_TECH";
"PES01p";"2024/01/01 00:01";"2024/01/01 23:59";"2024/01/29";"PM2.5";"PM2.5";"ug/m3";"3";"O";"DATA_VALIDATE_ENV";
"PES01p";"2024/01/02 00:01";"2024/01/02 23:59";"2024/01/29";"PM2.5";"PM2.5";"ug/m3";"3";"O";"DATA_VALIDATE_ENV";
"PES01p";"2024/01/03 00:01";"2024/01/03 23:59";"2024/01/29";"PM2.5";"PM2.5";"ug/m3";"3";"O";"DATA_VALIDATE_ENV";
"PES01p";"2024/01/04 00:01";"2024/01/04 23:59";"2024/01/29";"PM2.5";"PM2.5";"ug/m3";"3";"O";"DATA_VALIDATE_ENV";
"PES01p";"2024/01/05 00:01";"2024/01/05 23:59";"2024/01/29";"PM2.5";"PM2.5";"ug/m3";"3";"O";"DATA_VALIDATE_ENV";
"PES01p";"2024/01/06 00:01";"2024/01/06 23:59";"2024/01/29";"PM2.5";"PM2.5";"ug/m3";"3";"O";"DATA_VALIDATE_ENV";
"PES01p";"2024/01/07 00:01";"2024/01/07 23:59";"2024/01/29";"PM2.5";"PM2.5";"ug/m3";"3.8";"A";"DATA_VALIDATE_ENV";
"PES01p";"2024/01/08 00:01";"2024/01/08 23:59";"2024/01/29";"PM2.5";"PM2.5";"ug/m3";"4";"A";"DATA_VALIDATE_ENV";
"PES01p";"2024/01/09 00:01";"2024/01/09 23:59";"2024/02/26";"PM2.5";"PM2.5";"ug/m3";"8.7";"A";"DATA_VALIDATE_TECH";
"PES01p";"2024/01/10 00:01";"2024/01/10 23:59";"2024/02/26";"PM2.5";"PM2.5";"ug/m3";"15.3";"A";"DATA_VALIDATE_TECH";
"PES01p";"2024/01/11 00:01";"2024/01/11 23:59";"2024/02/26";"PM2.5";"PM2.5";"ug/m3";"20";"A";"DATA_VALIDATE_TECH";
"PES01p";"2024/01/12 00:01";"2024/01/12 23:59";"2024/02/26";"PM2.5";"PM2.5";"ug/m3";"8.3";"A";"DATA_VALIDATE_TECH";
"PES01p";"2024/01/13 00:01";"2024/01/13 23:59";"2024/02/26";"PM2.5";"PM2.5";"ug/m3";"12.7";"A";"DATA_VALIDATE_TECH";
"PES01p";"2024/01/14 00:01";"2024/01/14 23:59";"2024/02/26";"PM2.5";"PM2.5";"ug/m3";"12.5";"A";"DATA_VALIDATE_TECH";
"PES01p";"2024/01/15 00:01";"2024/01/15 23:59";"2024/02/26";"PM2.5";"PM2.5";"ug/m3";"8.9";"A";"DATA_VALIDATE_TECH";
"PES01p";"2024/01/16 00:01";"2024/01/16 23:59";"2024/02/26";"PM2.5";"PM2.5";"ug/m3";"10.2";"A";"DATA_VALIDATE_TECH";
"PES01p";"2024/01/17 00:01";"2024/01/17 23:59";"2024/02/26";"PM2.5";"PM2.5";"ug/m3";"11.1";"A";"DATA_VALIDATE_TECH";
"PES01p";"2024/01/18 00:01";"2024/01/18 23:59";"2024/02/26";"PM2.5";"PM2.5";"ug/m3";"8.6";"A";"DATA_VALIDATE_TECH";
"PES01p";"2024/01/19 00:01";"2024/01/19 23:59";"2024/02/26";"PM2.5";"PM2.5";"ug/m3";"12.2";"A";"DATA_VALIDATE_TECH";
"PES01p";"2024/01/20 00:01";"2024/01/20 23:59";"2024/02/26";"PM2.5";"PM2.5";"ug/m3";"18.3";"A";"DATA_VALIDATE_TECH";
"PES01p";"2024/01/21 00:01";"2024/01/21 23:59";"2024/02/26";"PM2.5";"PM2.5";"ug/m3";"10";"A";"DATA_VALIDATE_TECH";
"PES01p";"2024/01/22 00:01";"2024/01/22 23:59";"2024/02/26";"PM2.5";"PM2.5";"ug/m3";"3";"O";"DATA_VALIDATE_TECH";
"PES01p";"2024/01/23 00:01";"2024/01/23 23:59";"2024/03/01";"PM2.5";"PM2.5";"ug/m3";"11.2";"A";"DATA_VALIDATE_TECH";
"PES01p";"2024/01/24 00:01";"2024/01/24 23:59";"2024/03/01";"PM2.5";"PM2.5";"ug/m3";"11.4";"A";"DATA_VALIDATE_TECH";
"PES01p";"2024/01/25 00:01";"2024/01/25 23:59";"2024/03/01";"PM2.5";"PM2.5";"ug/m3";"7.2";"A";"DATA_VALIDATE_TECH";
"PES01p";"2024/01/26 00:01";"2024/01/26 23:59";"2024/03/01";"PM2.5";"PM2.5";"ug/m3";"3.8";"A";"DATA_VALIDATE_TECH";
"PES01p";"2024/01/27 00:01";"2024/01/27 23:59";"2024/03/01";"PM2.5";"PM2.5";"ug/m3";"12.6";"A";"DATA_VALIDATE_TECH";
"PES01p";"2024/01/28 00:01";"2024/01/28 23:59";"2024/03/01";"PM2.5";"PM2.5";"ug/m3";"13.3";"A";"DATA_VALIDATE_TECH";
"PES01p";"2024/01/29 00:01";"2024/01/29 23:59";"2024/03/01";"PM2.5";"PM2.5";"ug/m3";"17.1";"A";"DATA_VALIDATE_TECH";
"PES01p";"2024/01/30 00:01";"2024/01/30 23:59";"2024/03/01";"PM2.5";"PM2.5";"ug/m3";"10.5";"A";"DATA_VALIDATE_TECH";
"PES01p";"2024/01/31 00:01";"2024/01/31 23:59";"2024/03/01";"PM2.5";"PM2.5";"ug/m3";"6.4";"A";"DATA_VALIDATE_TECH";
"PES01p";"2024/02/01 00:01";"2024/02/01 23:59";"2024/03/01";"PM2.5";"PM2.5";"ug/m3";"6.1";"A";"DATA_VALIDATE_TECH";
"PES01p";"2024/02/02 00:01";"2024/02/02 23:59";"2024/03/01";"PM2.5";"PM2.5";"ug/m3";"9.4";"A";"DATA_VALIDATE_TECH";
"PES01p";"2024/02/03 00:01";"2024/02/03 23:59";"2024/03/01";"PM2.5";"PM2.5";"ug/m3";"4.1";"A";"DATA_VALIDATE_TECH";
"PES01p";"2024/02/04 00:01";"2024/02/04 23:59";"2024/03/01";"PM2.5";"PM2.5";"ug/m3";"3";"O";"DATA_VALIDATE_TECH";
"PES01p";"2024/02/05 00:01";"2024/02/05 23:59";"2024/03/01";"PM2.5";"PM2.5";"ug/m3";"13";"A";"DATA_VALIDATE_TECH";
"PES01p";"2024/02/06 00:01";"2024/02/06 23:59";"2024/03/15";"PM2.5";"PM2.5";"ug/m3";"10.7";"A";"DATA_VALIDATE_TECH";
"PES01p";"2024/02/07 00:01";"2024/02/07 23:59";"2024/03/15";"PM2.5";"PM2.5";"ug/m3";"3";"O";"DATA_VALIDATE_TECH";
"PES01p";"2024/02/08 00:01";"2024/02/08 23:59";"2024/03/15";"PM2.5";"PM2.5";"ug/m3";"5.5";"A";"DATA_VALIDATE_TECH";
"PES01p";"2024/02/09 00:01";"2024/02/09 23:59";"2024/03/15";"PM2.5";"PM2.5";"ug/m3";"4.7";"A";"DATA_VALIDATE_TECH";
"PES01p";"2024/02/10 00:01";"2024/02/10 23:59";"2024/03/15";"PM2.5";"PM2.5";"ug/m3";"3.8";"A";"DATA_VALIDATE_TECH";
"PES01p";"2024/02/11 00:01";"2024/02/11 23:59";"2024/03/15";"PM2.5";"PM2.5";"ug/m3";"3";"O";"DATA_VALIDATE_TECH";
"PES01p";"2024/02/12 00:01";"2024/02/12 23:59";"2024/03/15";"PM2.5";"PM2.5";"ug/m3";"3.8";"A";"DATA_VALIDATE_TECH";
"PES01p";"2024/02/13 00:01";"2024/02/13 23:59";"2024/03/15";"PM2.5";"PM2.5";"ug/m3";"3.1";"A";"DATA_VALIDATE_TECH";
"PES01p";"2024/02/14 00:01";"2024/02/14 23:59";"2024/03/15";"PM2.5";"PM2.5";"ug/m3";"3";"O";"DATA_VALIDATE_TECH";
"PES01p";"2024/02/15 00:01";"2024/02/15 23:59";"2024/03/15";"PM2.5";"PM2.5";"ug/m3";"6.7";"A";"DATA_VALIDATE_TECH";
"PES01p";"2024/02/16 00:01";"2024/02/16 23:59";"2024/03/15";"PM2.5";"PM2.5";"ug/m3";"3.4";"A";"DATA_VALIDATE_TECH";
"PES01p";"2024/02/17 00:01";"2024/02/17 23:59";"2024/03/15";"PM2.5";"PM2.5";"ug/m3";"5";"A";"DATA_VALIDATE_TECH";
"PES01p";"2024/02/18 00:01";"2024/02/18 23:59";"2024/03/15";"PM2.5";"PM2.5";"ug/m3";"4.8";"A";"DATA_VALIDATE_TECH";
"PES01p";"2024/02/19 00:01";"2024/02/19 23:59";"2024/03/15";"PM2.5";"PM2.5";"ug/m3";"5.4";"A";"DATA_VALIDATE_TECH";
"PES01p";"2024/02/21 00:01";"2024/02/21 23:59";"2024/03/26";"PM2.5";"PM2.5";"ug/m3";"6.5";"A";"DATA_VALIDATE_TECH";
"PES01p";"2024/02/22 00:01";"2024/02/22 23:59";"2024/03/26";"PM2.5";"PM2.5";"ug/m3";"3";"O";"DATA_VALIDATE_TECH";
"PES01p";"2024/02/23 00:01";"2024/02/23 23:59";"2024/03/26";"PM2.5";"PM2.5";"ug/m3";"3";"O";"DATA_VALIDATE_TECH";
"PES01p";"2024/02/24 00:01";"2024/02/24 23:59";"2024/03/26";"PM2.5";"PM2.5";"ug/m3";"3";"O";"DATA_VALIDATE_TECH";
"PES01p";"2024/02/25 00:01";"2024/02/25 23:59";"2024/03/26";"PM2.5";"PM2.5";"ug/m3";"3";"O";"DATA_VALIDATE_TECH";
"PES01p";"2024/02/26 00:01";"2024/02/26 23:59";"2024/03/26";"PM2.5";"PM2.5";"ug/m3";"3.6";"A";"DATA_VALIDATE_TECH";
"PES01p";"2024/02/27 00:01";"2024/02/27 23:59";"2024/03/26";"PM2.5";"PM2.5";"ug/m3";"11.9";"A";"DATA_VALIDATE_TECH";
"PES01p";"2024/02/28 00:01";"2024/02/28 23:59";"2024/03/26";"PM2.5";"PM2.5";"ug/m3";"18.8";"A";"DATA_VALIDATE_TECH";
"PES01p";"2024/02/29 00:01";"2024/02/29 23:59";"2024/03/26";"PM2.5";"PM2.5";"ug/m3";"12.6";"A";"DATA_VALIDATE_TECH";
"PES01p";"2024/03/01 00:01";"2024/03/01 23:59";"2024/03/26";"PM2.5";"PM2.5";"ug/m3";"5.9";"A";"DATA_VALIDATE_TECH";
"PES01p";"2024/03/02 00:01";"2024/03/02 23:59";"2024/03/26";"PM2.5";"PM2.5";"ug/m3";"6.1";"A";"DATA_VALIDATE_TECH";
"PES01p";"2024/03/03 00:01";"2024/03/03 23:59";"2024/03/26";"PM2.5";"PM2.5";"ug/m3";"7.4";"A";"DATA_VALIDATE_TECH";
"PES01p";"2024/03/04 00:01";"2024/03/04 23:59";"2024/03/26";"PM2.5";"PM2.5";"ug/m3";"9.5";"A";"DATA_VALIDATE_TECH";
"PES01p";"2024/03/05 00:01";"2024/03/05 23:59";"2024/04/10";"PM2.5";"PM2.5";"ug/m3";"9.8";"A";"DATA_VALIDATE_TECH";
"PES01p";"2024/03/06 00:01";"2024/03/06 23:59";"2024/04/10";"PM2.5";"PM2.5";"ug/m3";"6.3";"A";"DATA_VALIDATE_TECH";
"PES01p";"2024/03/07 00:01";"2024/03/07 23:59";"2024/04/10";"PM2.5";"PM2.5";"ug/m3";"15.9";"A";"DATA_VALIDATE_TECH";
"PES01p";"2024/03/08 00:01";"2024/03/08 23:59";"2024/04/10";"PM2.5";"PM2.5";"ug/m3";"15";"A";"DATA_VALIDATE_TECH";
"PES01p";"2024/03/09 00:01";"2024/03/09 23:59";"2024/04/10";"PM2.5";"PM2.5";"ug/m3";"10.5";"A";"DATA_VALIDATE_TECH";
"PES01p";"2024/03/10 00:01";"2024/03/10 23:59";"2024/04/10";"PM2.5";"PM2.5";"ug/m3";"6.8";"A";"DATA_VALIDATE_TECH";
"PES01p";"2024/03/11 00:01";"2024/03/11 23:59";"2024/04/10";"PM2.5";"PM2.5";"ug/m3";"5.1";"A";"DATA_VALIDATE_TECH";
"PES01p";"2024/03/12 00:01";"2024/03/12 23:59";"2024/04/10";"PM2.5";"PM2.5";"ug/m3";"10.5";"A";"DATA_VALIDATE_TECH";
"PES01p";"2024/03/13 00:01";"2024/03/13 23:59";"2024/04/10";"PM2.5";"PM2.5";"ug/m3";"3";"O";"DATA_VALIDATE_TECH";
"PES01p";"2024/03/14 00:01";"2024/03/14 23:59";"2024/04/10";"PM2.5";"PM2.5";"ug/m3";"4.6";"A";"DATA_VALIDATE_TECH";
"PES01p";"2024/03/15 00:01";"2024/03/15 23:59";"2024/04/10";"PM2.5";"PM2.5";"ug/m3";"3";"O";"DATA_VALIDATE_TECH";
"PES01p";"2024/03/16 00:01";"2024/03/16 23:59";"2024/04/10";"PM2.5";"PM2.5";"ug/m3";"4.9";"A";"DATA_VALIDATE_TECH";
"PES01p";"2024/03/17 00:01";"2024/03/17 23:59";"2024/04/10";"PM2.5";"PM2.5";"ug/m3";"5.9";"A";"DATA_VALIDATE_TECH";
"PES01p";"2024/03/18 00:01";"2024/03/18 23:59";"2024/04/10";"PM2.5";"PM2.5";"ug/m3";"6.2";"A";"DATA_VALIDATE_TECH";
"PES01p";"2024/03/19 00:01";"2024/03/19 23:59";"2024/04/19";"PM2.5";"PM2.5";"ug/m3";"8";"A";"DATA_VALIDATE_TECH";
"PES01p";"2024/03/20 00:01";"2024/03/20 23:59";"2024/04/19";"PM2.5";"PM2.5";"ug/m3";"8.3";"A";"DATA_VALIDATE_TECH";
"PES01p";"2024/03/21 00:01";"2024/03/21 23:59";"2024/04/19";"PM2.5";"PM2.5";"ug/m3";"8.7";"A";"DATA_VALIDATE_TECH";
"PES01p";"2024/03/22 00:01";"2024/03/22 23:59";"2024/04/19";"PM2.5";"PM2.5";"ug/m3";"10.3";"A";"DATA_VALIDATE_TECH";
"PES01p";"2024/03/23 00:01";"2024/03/23 23:59";"2024/04/19";"PM2.5";"PM2.5";"ug/m3";"3.2";"A";"DATA_VALIDATE_TECH";
"PES01p";"2024/03/24 00:01";"2024/03/24 23:59";"2024/04/19";"PM2.5";"PM2.5";"ug/m3";"5.7";"A";"DATA_VALIDATE_TECH";
"PES01p";"2024/03/25 00:01";"2024/03/25 23:59";"2024/04/19";"PM2.5";"PM2.5";"ug/m3";"3.9";"A";"DATA_VALIDATE_TECH";
"PES01p";"2024/03/26 00:01";"2024/03/26 23:59";"2024/04/19";"PM2.5";"PM2.5";"ug/m3";"6";"A";"DATA_VALIDATE_TECH";
"PES01p";"2024/03/27 00:01";"2024/03/27 23:59";"2024/04/19";"PM2.5";"PM2.5";"ug/m3";"3";"O";"DATA_VALIDATE_TECH";
"PES01p";"2024/03/28 00:01";"2024/03/28 23:59";"2024/04/19";"PM2.5";"PM2.5";"ug/m3";"3";"O";"DATA_VALIDATE_TECH";
"PES01p";"2024/03/29 00:01";"2024/03/29 23:59";"2024/04/19";"PM2.5";"PM2.5";"ug/m3";"3";"O";"DATA_VALIDATE_TECH";
"PES01p";"2024/03/30 00:01";"2024/03/30 23:59";"2024/04/19";"PM2.5";"PM2.5";"ug/m3";"6.1";"A";"DATA_VALIDATE_TECH";
"PES01p";"2024/03/31 00:01";"2024/03/31 23:59";"2024/04/19";"PM2.5";"PM2.5";"ug/m3";"3.5";"A";"DATA_VALIDATE_TECH";
"PES01p";"2024/04/01 00:01";"2024/04/01 23:59";"2024/04/19";"PM2.5";"PM2.5";"ug/m3";"3";"O";"DATA_VALIDATE_TECH";
"PES01p";"2024/04/02 00:01";"2024/04/02 23:59";"2024/05/13";"PM2.5";"PM2.5";"ug/m3";"3";"O";"DATA_VALIDATE_TECH";
"PES01p";"2024/04/03 00:01";"2024/04/03 23:59";"2024/05/13";"PM2.5";"PM2.5";"ug/m3";"3";"O";"DATA_VALIDATE_TECH";
"PES01p";"2024/04/04 00:01";"2024/04/04 23:59";"2024/05/13";"PM2.5";"PM2.5";"ug/m3";"3";"O";"DATA_VALIDATE_TECH";
"PES01p";"2024/04/05 00:01";"2024/04/05 23:59";"2024/05/13";"PM2.5";"PM2.5";"ug/m3";"3.3";"A";"DATA_VALIDATE_TECH";
"PES01p";"2024/04/06 00:01";"2024/04/06 23:59";"2024/05/13";"PM2.5";"PM2.5";"ug/m3";"3.9";"A";"DATA_VALIDATE_TECH";
"PES01p";"2024/04/07 00:01";"2024/04/07 23:59";"2024/05/13";"PM2.5";"PM2.5";"ug/m3";"4.7";"A";"DATA_VALIDATE_TECH";
"PES01p";"2024/04/08 00:01";"2024/04/08 23:59";"2024/05/13";"PM2.5";"PM2.5";"ug/m3";"8.4";"A";"DATA_VALIDATE_TECH";
"PES01p";"2024/04/09 00:01";"2024/04/09 23:59";"2024/05/13";"PM2.5";"PM2.5";"ug/m3";"3.4";"A";"DATA_VALIDATE_TECH";